Regional Weather Roundup
Issued by NWS Charleston, SC

Home | Current Version | Previous Version | Text Only | Print | Product List | Glossary On
Versions: 1 2 3 4 5 6 7 8 9 10 11 12 13 14 15 16 17 18 19 20 21 22 23 24 25 26 27 28 29 30 31 32 33 34 35 36 37 38 39 40 41 42 43 44 45 46 47 48 49 50
000
ASUS42 KCHS 191526
RWRCHS

REGIONAL WEATHER ROUNDUP
NATIONAL WEATHER SERVICE CHARLESTON SC
1100 AM EDT SUN APR 19 2015

NOTE: "FAIR" INDICATES FEW OR NO CLOUDS BELOW 12,000 FEET WITH NO
SIGNIFICANT WEATHER AND/OR OBSTRUCTIONS TO VISIBILITY.

NOT ALL STATIONS ARE QUALITY CONTROLLED BY THE NATIONAL
WEATHER SERVICE. USE DATA WITH CAUTION...ESPECIALLY
DEWPOINT OBSERVATIONS.

SCZ027-030-031-034>040-042>050-191600-
...SOUTHEAST SOUTH CAROLINA...

CITY           SKY/WX    TMP DP  RH WIND       PRES   REMARKS
N CHARLESTON   CLOUDY    72  68  87 E10       29.92F
WATERFRONT PRK   N/A     73 N/A N/A E12         N/A
MOUNT PLEASANT PTSUNNY   73  70  88 E9        29.93F
PINOPOLIS      NOT AVBL
MONCKS CORNER  CLOUDY    73  68  83 E7        29.93S
SUMMERVILLE    CLOUDY    72  70  94 E5        29.93F
BEAUFORT MCAS    N/A    N/A N/A N/A MISG      29.88F
BEAUFORT ARPT  PTSUNNY   72  72 100 CALM      29.88F FOG
HILTON HEAD IS CLOUDY    73  70  88 SE5       29.88F FOG
WALTERBORO     CLOUDY    70  68  94 E8        29.90F
ALLENDALE      PTSUNNY   72  70  94 SE7       29.88S

...SOUTHERN MIDLANDS AND PEE DEE...

CITY           SKY/WX    TMP DP  RH WIND       PRES   REMARKS
GEORGETOWN     NOT AVBL
KINGSTREE      NOT AVBL
ORANGEBURG     CLOUDY    69  66  90 SE7       29.91F FOG
BARNWELL       CLOUDY    72  72 100 E7        29.89S
AIKEN          CLOUDY    52  52 100 SE8       29.92S
MANNING        RAIN      70  59  68 SE3       29.93S
COLUMBIA       CLOUDY    69  66  90 E7        29.91R
SUMTER         CLOUDY    70  68  94 SE9       29.91F
FLORENCE       CLOUDY    71  66  84 SE9       29.94F
MYRTLE BEACH   PTSUNNY   73  66  78 E12       29.99S
N MYRTLE BEACH CLOUDY    72  66  81 E9G18     29.97S

$$

GAZ063-065-086>088-099>101-113>116-118-119-134>141-150-191600-
...SOUTHEAST GEORGIA...

CITY           SKY/WX    TMP DP  RH WIND       PRES   REMARKS
SAVANNAH ARPT  CLOUDY    75  72  88 SE7       29.88R
HUNTER AAF     PTSUNNY   75  75 100 S12       29.87R
FORT STEWART   CLOUDY    75  72  88 S7        29.88R
STATESBORO       N/A     73  73 100 S5        29.89R
SYLVANIA       CLOUDY    72  71  99 S3        29.89R
CLAXTON        CLOUDY    75  72  88 S5        29.89R

...CSRA...CENTRAL AND FAR SOUTHEAST GEORGIA...

CITY           SKY/WX    TMP DP  RH WIND       PRES   REMARKS
THOMSON        CLOUDY    74  73  96 SE5       29.92R
AUGUSTA-BUSH   CLOUDY    70  69  97 SE6       29.86F FOG
AUGUSTA-DANIEL CLOUDY    69  67  93 SE7       29.88S
SWAINSBORO     NOT AVBL
VIDALIA        PTSUNNY   77  72  83 S10       29.91R
EASTMAN        CLOUDY    76  75  99 S8        29.91R
HAZLEHURST     PTSUNNY   79  71  77 S9G16     29.90R
ALMA           CLOUDY    77  70  79 S13       29.90R
WAYCROSS       PTSUNNY   83  75  78 S8        29.90F HX  90
JESUP          CLOUDY    79  75  89 SW9       29.92R
BAXLEY         CLOUDY    79  72  78 S12G18    29.91R
BRUNSWICK      MOSUNNY   77  70  78 SE7       29.93R
SAINT SIMONS   MOSUNNY   74  71  91 S10       29.91R

$$

SCZ027-028-034-036>038-045-046-048>050-GAZ119-141-191600-
...LAKE AND SUPPLEMENTAL COASTAL OBSERVATIONS...

STATION/POSITION TIME  TEMP    WIND        PRES    WAVE   SWELL
                       AIR SEA DIR/SP/G            HT/PER HT/PER/DIR
                 (UTC) (F)     (DEG/KT/KT) (MB)    (FT/S) (FT/S/D)
UPR LAKE MARION  NOT AVBL
WINYAH BAY       1345   67      50/  6     1014.0
LAKE MURRAY      1400   67     100/  6/  7 1012.2F
ACE BASIN NERRS  NOT AVBL
FORT PULASKI     1500          110/  8/ 10   N/A
SAPELO ISLAND    1400   72     120/  5     1011.0F

$$

ANZ835-935-AMZ111-154-330-350-352-354-370-450-454-472-191600-
...C-MAN AND BUOY OBSERVATIONS...

STATION/POSITION TIME  TEMP    WIND        PRES    WAVE   SWELL
                       AIR SEA DIR/SP/G            HT/PER HT/PER/DIR
                 (UTC) (F)     (DEG/KT/KT) (MB)    (FT/S) (FT/S/D)
BUOY 41004       1450   72 75  140/ 10/ 16 1013.9R   3/ 8   3/ 8
BUOY 41008       1450   70 69  110/  6/  8 1012.2F   2/ 8   2/ 90/ 8
FOLLY BEACH CMAN 1500   69      90/  9/ 10 1013.4F
CAPERS NEARSHORE NOT AVBL
FRIPP NEARSHORE  1400   69     130/  4/  4 1012.8F


STATION/POSITION TIME  TEMP    WIND        PRES    WAVE   SWELL
                       AIR SEA DIR/SP/G            HT/PER HT/PER/DIR
                 (UTC) (F)     (DEG/KT/KT) (MB)    (FT/S) (FT/S/D)
5E ST. MARYS GA  1421      71                N/A     2/ 9   2/ 90/12
FRYING PAN BUOY  1450   73 73  120/  8/ 10 1015.4F   3/ 8   3/110/ 8
BUOY 41025       1450   73 75   90/ 12/ 14 1017.2R   4/12   3/100/12
CAPE LOOKOUT NC  1500   70      70/ 13/ 14 1016.2F
BUOY 41002       1450   72 75  110/ 10/ 12 1016.8R   4/11   5/ 60/11
BUOY 41010       1420   78 78  170/  4/  6 1015.2F
ST AUGUSTINE FL  1500   73 68  160/ 10/ 10 1013.6R


$$



USA.gov is the U.S. government's official web portal to all federal, state and local government web resources and services.